GFSSW_850_thetae_333.txt.gz
Theta_e
314 314 314 315 316 315 315 314 314 314 312 311 311 311 312 314 313 315 316 320 322 321 316 318 320 320 321 321 323 324 318 319 323 339 340 337 337 339 338 337 337 337 337 337 337
314 314 317 318 318 318 317 315 314 313 312 312 312 313 313 313 314 316 322 323 321 319 316 319 320 320 321 322 323 322 319 321 333 336 339 340 340 345 342 339 338 338 337 337 337
314 314 317 319 319 320 318 315 314 313 312 312 313 313 313 314 317 321 324 322 318 316 319 321 321 322 322 323 324 324 320 325 337 340 340 339 338 336 337 341 338 338 338 338 338
314 314 315 318 319 319 316 315 314 313 313 313 313 313 314 316 331 327 326 322 317 316 319 321 322 323 322 321 326 325 325 335 340 339 341 341 338 337 337 341 339 338 338 338 339
313 314 314 317 319 319 316 314 314 315 318 319 320 320 320 326 331 326 322 318 317 316 320 321 321 323 320 323 325 325 326 336 338 338 341 335 335 335 337 335 340 338 338 338 339
312 313 314 314 318 319 319 315 317 320 323 322 322 322 322 327 326 324 317 317 317 319 321 321 322 324 324 324 323 326 326 334 338 338 339 339 337 341 341 340 344 341 339 343 345
312 312 313 314 315 318 319 318 318 320 319 320 321 321 323 328 325 323 320 318 320 321 321 322 323 323 323 321 326 327 324 323 336 336 336 336 340 342 343 343 342 343 345 346 347
312 312 312 313 314 316 317 318 318 319 320 320 320 322 325 327 324 322 320 320 319 320 321 323 323 323 323 324 325 325 322 321 321 335 337 336 342 340 343 345 346 347 347 347 347
312 312 312 313 314 315 316 320 320 318 319 321 320 332 333 328 323 323 321 321 320 321 322 322 321 321 322 320 319 324 320 321 321 323 335 329 345 343 345 346 345 345 345 346 346
313 313 313 313 314 315 321 323 325 324 318 319 318 322 327 328 323 324 322 322 322 322 322 322 321 317 316 316 317 321 320 319 320 322 322 323 335 341 343 344 344 344 345 345 346
313 314 314 313 314 316 322 323 321 327 321 325 327 325 326 325 324 323 323 323 324 323 320 322 317 316 317 318 320 321 321 322 325 324 322 322 339 339 340 341 343 344 344 345 345
312 313 314 314 314 319 319 320 320 319 320 321 322 322 324 324 324 323 322 323 323 322 322 320 317 319 320 321 321 321 321 322 327 326 325 326 327 333 336 335 342 342 344 344 344
312 312 313 315 316 320 320 320 319 320 321 321 321 323 322 323 324 324 322 323 323 321 320 319 321 323 322 321 322 322 324 323 324 328 327 329 326 323 333 334 335 340 343 344 343
313 313 312 314 316 317 321 320 320 319 321 325 325 324 323 322 323 323 323 323 323 321 321 321 323 323 323 323 323 322 323 324 323 327 327 327 323 323 329 332 330 332 342 342 341
313 313 313 312 313 315 319 320 319 320 330 328 324 322 322 323 324 323 323 323 322 323 323 324 323 324 325 325 324 321 323 326 324 326 325 324 323 324 327 329 330 330 341 341 340
309 311 312 313 313 316 319 319 320 323 331 327 325 324 322 322 324 324 323 323 323 322 323 324 326 325 324 324 324 325 325 326 325 321 322 322 324 323 322 329 332 333 341 341 339
307 307 307 310 313 313 318 320 323 326 328 326 326 324 322 323 323 323 323 321 320 323 322 324 324 326 326 326 325 323 321 321 323 322 323 322 323 323 333 331 332 334 338 339 338
307 308 309 310 312 314 319 320 325 326 327 327 326 325 323 324 324 324 323 321 321 321 321 324 323 324 325 325 325 325 321 320 325 326 325 325 328 331 328 329 329 335 336 337 336
307 308 309 311 314 320 321 322 323 325 326 325 324 325 325 324 324 323 323 323 322 321 323 325 326 326 325 325 324 323 324 322 326 326 323 324 331 332 330 329 330 330 334 336 335
306 307 311 313 319 318 320 321 322 323 322 323 323 323 324 324 325 323 324 324 325 325 325 326 327 328 326 325 325 325 325 322 323 327 328 326 327 333 332 331 329 329 330 337 335
305 316 315 317 319 321 322 321 320 320 321 323 324 323 323 324 324 326 324 325 325 325 325 325 327 327 329 326 326 325 324 323 321 325 326 328 329 329 331 331 329 330 331 335 334
315 319 319 319 322 322 321 321 320 321 321 322 323 323 323 323 324 327 329 329 327 327 325 325 326 326 328 327 327 325 325 323 323 324 325 324 325 329 327 328 332 332 332 331 331
312 316 317 319 321 321 321 321 321 322 323 323 325 324 323 322 324 326 326 327 327 328 327 330 327 328 326 324 326 328 328 327 328 328 327 328 327 329 329 328 331 331 332 331 330
312 317 318 316 320 321 321 321 321 322 323 323 326 325 325 325 324 325 324 325 326 327 326 328 330 328 325 326 327 330 329 329 328 328 325 325 325 326 327 327 327 327 328 330 330
311 315 317 318 319 320 321 321 321 321 322 325 325 325 324 326 326 325 325 325 325 326 327 325 327 330 330 329 327 327 327 326 328 328 330 327 326 325 325 326 329 328 328 329 331
314 315 313 313 318 322 321 323 325 323 320 321 323 326 324 324 326 326 326 326 328 328 328 329 327 328 329 328 327 327 326 325 325 326 328 328 326 323 327 328 329 328 328 328 332
310 314 316 315 317 320 322 323 323 323 324 324 323 323 323 325 325 326 326 327 328 328 327 331 328 330 329 329 328 328 326 326 326 325 327 325 323 324 323 326 327 328 329 332 331

GFSSW_850_thetae_336.txt.gz
Theta_e
313 314 317 318 318 319 317 315 314 313 312 311 311 311 312 313 313 314 316 316 320 321 317 316 319 320 320 320 320 321 316 315 326 338 335 337 337 338 337 335 336 336 335 335 335
313 313 316 318 318 318 317 315 314 313 312 312 312 313 313 314 313 315 317 321 320 319 317 317 320 321 321 320 322 319 314 327 336 337 337 338 341 341 339 338 337 336 335 336 336
312 313 314 317 318 318 315 314 314 313 312 312 313 313 313 314 320 321 319 320 318 316 317 320 320 321 321 321 321 320 321 336 340 338 339 335 337 341 339 340 338 336 336 336 337
311 312 313 314 317 318 317 314 314 314 314 315 316 315 315 318 328 328 325 324 319 316 319 319 321 321 319 320 322 321 338 340 340 337 335 334 335 337 337 339 337 337 336 336 336
311 312 312 314 315 318 318 316 317 320 321 322 322 321 320 324 329 327 323 322 317 316 318 319 321 321 319 320 321 333 336 340 340 339 338 335 335 335 336 340 337 337 337 337 337
312 312 312 313 314 316 317 318 318 320 319 320 320 321 321 327 325 323 318 317 317 317 319 321 321 321 320 320 320 326 337 338 340 335 335 334 333 338 334 339 338 338 338 339 341
312 312 312 313 314 314 316 317 318 319 319 319 319 320 322 328 325 323 318 317 319 320 319 320 321 321 322 319 323 336 337 335 338 337 336 335 340 337 338 338 338 339 341 346 347
313 313 313 313 313 314 315 318 319 317 319 320 320 323 326 328 329 322 319 319 319 319 320 321 321 322 322 322 321 322 319 318 334 335 337 339 344 340 340 341 341 342 347 347 347
313 313 313 313 313 315 320 322 323 323 318 318 319 321 326 327 324 323 321 320 320 321 321 321 321 320 320 316 315 315 319 320 321 335 338 335 343 341 343 342 345 346 347 346 346
312 313 314 314 314 316 321 322 319 323 321 321 322 320 322 327 324 323 322 322 321 321 321 321 321 313 312 313 316 319 320 318 318 320 335 335 342 340 340 344 345 346 346 346 346
312 313 314 314 314 318 320 319 319 321 319 319 319 322 322 326 325 324 323 322 323 322 319 320 316 314 314 314 316 318 318 319 320 319 322 337 343 342 343 344 343 345 345 345 344
312 312 313 314 315 318 320 320 320 319 318 319 319 320 320 323 322 323 323 322 322 321 320 317 316 316 316 316 317 318 318 317 323 324 321 335 344 343 342 343 343 343 344 345 345
313 313 313 313 315 317 319 320 319 319 319 319 319 319 322 322 322 323 322 322 321 320 319 317 319 320 319 318 319 319 319 320 323 326 325 324 325 331 335 342 343 343 344 345 345
312 313 313 313 314 315 317 319 319 320 318 323 323 322 322 322 322 323 323 322 320 320 319 318 319 320 320 320 319 321 320 322 325 326 326 324 325 321 322 332 341 341 343 344 343
307 308 309 310 312 313 316 319 320 321 327 328 324 323 323 322 323 322 323 322 320 320 321 320 321 321 322 323 323 322 321 325 323 321 321 322 320 320 324 331 329 335 342 342 343
306 307 308 308 310 313 316 318 321 321 328 327 323 321 320 321 322 323 323 323 322 320 320 320 323 322 322 323 323 322 322 319 318 317 320 320 320 319 319 325 331 333 341 341 341
308 308 308 309 311 310 317 319 319 321 324 325 324 322 319 320 321 322 321 319 318 321 319 320 322 322 324 324 322 318 317 318 320 321 322 319 321 319 322 325 326 337 340 339 339
308 309 310 310 310 310 318 318 322 323 325 324 322 323 321 321 322 322 320 319 318 318 318 320 321 323 323 323 321 321 317 317 321 321 321 321 324 326 327 326 331 339 339 338 337
308 309 311 312 310 316 320 318 318 322 323 321 322 323 323 322 323 321 319 319 319 317 319 319 322 324 324 323 322 322 321 317 319 320 321 321 329 329 327 327 333 338 337 336 337
306 309 312 316 310 317 316 317 319 320 319 319 320 321 320 321 322 321 320 321 321 320 319 320 322 324 327 323 322 320 321 321 317 325 325 323 326 328 329 327 327 334 335 335 336
306 309 312 319 313 316 316 316 319 318 318 320 320 320 320 321 322 322 325 324 323 322 320 319 320 322 326 324 322 323 322 318 316 320 323 324 322 325 327 326 325 327 335 336 336
305 311 318 317 318 318 317 318 320 320 319 320 320 320 321 321 322 322 326 325 324 327 325 320 319 321 324 325 325 323 323 319 320 320 320 319 319 321 325 327 327 328 330 335 335
304 310 311 311 317 316 318 320 320 320 320 320 321 322 321 320 320 321 323 324 323 325 325 325 319 321 321 321 321 326 325 321 319 318 322 324 323 324 326 325 329 329 330 334 335
305 311 316 317 316 316 318 318 319 319 319 321 320 321 322 322 319 321 323 324 325 325 326 325 323 320 322 321 321 327 327 326 322 323 323 322 323 322 322 324 326 330 331 333 335
305 310 312 313 315 313 317 317 319 319 319 319 318 321 321 321 322 323 323 323 324 325 325 320 321 326 325 327 327 326 325 324 324 323 326 325 323 323 321 321 325 328 330 330 328
307 313 313 313 313 317 318 319 321 321 321 321 318 320 320 320 320 320 322 322 324 325 326 322 323 325 326 326 326 326 325 324 323 323 322 323 324 321 324 324 325 327 326 329 329
309 312 314 314 314 313 315 319 319 315 316 319 320 322 322 322 324 325 325 325 325 325 323 324 323 324 325 327 327 327 324 324 323 322 322 323 321 322 322 323 326 325 329 330 329

GFSSW_850_thetae_339.txt.gz
Theta_e
312 312 313 316 317 317 315 314 313 313 312 311 311 311 312 312 313 313 315 316 318 320 317 316 317 319 319 319 320 319 313 315 330 337 337 336 335 338 336 334 335 335 332 334 336
311 312 313 313 316 317 315 314 313 313 312 312 312 312 313 313 313 314 316 317 320 318 316 317 319 320 320 319 319 316 314 322 331 333 334 336 338 337 335 336 335 334 333 334 336
311 312 312 313 314 317 317 314 314 314 314 314 314 313 313 314 322 322 318 320 318 316 316 317 319 321 320 319 320 317 322 329 335 337 336 339 339 339 336 336 335 335 334 334 335
312 312 312 312 313 315 317 317 317 319 321 321 321 319 317 319 327 326 324 323 319 316 317 318 320 320 317 318 320 321 332 338 337 338 340 337 340 338 337 337 336 334 335 335 335
312 312 312 312 313 313 315 317 318 319 319 319 320 320 321 323 327 324 323 323 319 316 317 318 320 320 318 318 318 323 336 338 338 337 338 337 335 335 337 336 336 335 335 336 336
312 312 312 313 313 313 314 316 317 318 319 319 319 319 321 324 325 321 318 317 316 316 318 320 320 320 319 318 318 334 338 338 337 336 335 333 334 336 338 336 335 335 336 335 337
313 313 313 313 313 313 314 316 318 318 319 320 320 320 324 329 325 321 317 316 317 319 319 320 320 320 320 319 330 337 336 336 336 335 335 334 333 336 337 337 336 336 336 337 336
313 313 313 313 314 314 319 321 322 322 318 318 319 319 323 329 329 326 319 318 319 319 320 320 321 320 320 321 331 331 325 338 336 336 335 336 333 336 336 337 337 339 342 345 345
312 313 313 314 314 315 320 321 319 320 323 318 319 319 321 329 326 324 321 319 320 320 320 321 321 319 318 313 313 315 318 320 338 335 334 335 337 335 337 337 339 344 347 348 347
312 312 313 314 314 316 320 319 320 322 320 319 323 319 321 326 325 323 321 322 321 321 321 321 320 313 309 312 317 318 318 319 332 331 333 336 336 336 338 340 340 345 347 347 347
312 312 313 313 314 315 319 319 319 319 319 319 319 319 319 322 324 325 323 323 322 321 318 318 315 314 314 314 316 317 318 318 316 320 334 337 336 338 339 341 343 344 346 346 346
312 312 313 313 313 315 318 318 316 317 316 319 318 318 319 319 321 324 323 322 322 320 318 316 316 315 315 315 316 317 317 316 316 323 329 332 337 339 335 341 343 344 345 346 346
310 310 312 313 313 316 316 318 318 319 317 319 319 318 320 321 321 324 323 322 320 319 319 317 318 319 319 318 319 317 319 317 319 323 324 335 336 341 339 342 343 344 344 345 345
307 307 308 312 313 313 316 317 318 320 317 321 322 321 319 320 321 323 323 322 319 319 317 317 318 319 319 318 316 318 317 319 323 323 323 327 337 325 338 341 341 342 343 344 345
306 306 308 308 309 311 313 317 318 320 323 327 323 322 321 321 321 322 323 322 319 320 319 319 319 319 320 319 318 318 317 319 322 320 321 321 320 318 327 334 339 339 342 343 344
306 307 308 308 309 311 313 317 320 319 320 327 321 320 320 321 321 322 322 322 321 319 319 318 320 320 320 321 319 320 320 316 315 315 319 319 318 317 317 327 337 336 341 343 343
308 308 308 309 310 310 311 317 315 316 320 324 322 322 318 319 320 320 320 319 318 319 319 318 320 320 321 322 320 317 317 318 319 317 321 317 318 319 321 322 321 330 338 342 342
308 309 310 311 310 310 312 315 317 318 323 323 321 321 319 319 319 321 319 318 318 318 317 318 320 322 323 322 320 320 317 317 320 318 317 317 321 322 326 327 333 329 332 341 340
308 310 311 311 311 310 318 313 313 316 320 320 318 321 320 320 321 321 318 318 318 316 318 318 319 321 322 322 320 320 319 316 316 317 320 319 324 326 326 332 337 338 339 339 339
307 310 311 315 310 312 314 312 315 318 317 317 317 320 320 320 321 321 320 319 319 317 317 319 320 321 324 322 321 319 317 321 316 323 324 320 323 324 327 330 336 336 337 337 336
306 309 315 317 311 319 314 314 317 318 318 319 319 319 319 320 319 320 321 323 323 323 317 317 318 320 324 323 321 321 319 315 316 318 322 323 322 320 325 324 332 334 337 338 338
304 305 316 311 313 313 313 315 319 319 318 318 318 318 319 319 319 319 321 322 323 324 324 319 316 319 322 321 321 320 321 317 319 320 318 318 318 318 322 323 327 334 337 337 338
303 305 308 310 313 313 315 318 319 319 319 319 319 319 319 319 319 319 320 322 323 324 324 321 318 318 319 319 320 324 321 317 316 315 320 321 320 320 323 324 326 326 333 336 338
303 307 312 316 313 315 317 317 319 319 318 319 318 318 318 318 315 318 321 323 324 324 324 322 317 318 320 319 320 323 323 321 320 322 321 320 321 322 321 323 324 328 327 330 334
303 305 310 309 312 311 314 316 318 318 319 318 318 319 319 319 318 319 320 322 323 324 323 317 320 322 321 320 324 325 325 323 324 322 324 322 321 321 321 320 323 325 326 327 330
304 311 312 312 312 311 315 317 319 320 319 320 318 318 317 318 318 320 320 320 321 323 323 319 322 323 324 324 324 325 323 323 321 321 321 321 320 318 323 323 323 324 324 326 328
306 310 312 310 312 312 312 317 316 315 315 316 315 314 317 319 322 323 324 323 323 323 320 321 321 321 322 324 324 325 324 323 323 321 321 321 319 319 319 321 324 325 325 326 328

GFSSW_850_thetae_342.txt.gz
Theta_e
311 311 312 312 314 316 316 313 313 312 312 312 312 312 312 312 313 313 314 315 318 319 317 315 317 318 319 319 319 317 312 314 324 334 336 336 334 334 335 332 334 333 329 330 321
311 312 312 312 312 314 316 316 315 314 314 313 313 313 312 313 313 314 315 315 318 319 316 316 318 319 320 318 318 315 313 318 323 332 334 336 334 336 335 333 334 334 332 333 326
312 312 312 312 312 313 315 316 317 319 320 320 319 316 315 318 324 322 317 319 319 316 316 318 319 320 320 319 317 315 316 321 333 335 335 334 336 336 334 334 334 332 335 335 333
312 312 312 312 312 313 313 316 317 319 319 319 319 319 320 321 324 326 323 320 317 316 317 318 319 319 316 317 318 318 334 335 335 336 336 336 337 338 335 336 334 332 334 336 337
312 312 312 312 313 313 313 314 316 318 319 319 319 319 320 322 326 327 326 323 320 316 317 317 320 319 317 317 318 317 336 336 336 336 336 337 335 334 335 336 334 333 334 334 336
312 313 313 313 313 313 315 316 318 318 318 320 319 319 321 323 325 322 319 322 319 316 317 319 320 319 319 317 318 331 337 336 335 335 334 333 333 334 336 336 334 334 334 334 335
312 313 313 313 313 314 319 320 319 321 320 318 319 319 321 328 327 323 317 316 316 317 319 319 319 319 318 318 336 336 337 336 335 335 334 333 332 333 337 335 334 335 334 334 334
312 312 313 313 313 314 319 320 320 319 322 318 317 318 321 326 328 327 321 317 318 318 319 319 319 319 319 336 326 327 331 338 334 335 334 333 331 330 336 336 335 335 335 335 335
312 312 312 313 314 314 318 319 319 321 322 319 319 319 320 325 327 325 323 319 319 319 319 319 319 317 316 317 319 317 337 327 337 335 333 334 335 332 335 336 338 339 339 339 338
312 312 312 312 313 314 319 319 319 321 320 319 320 319 319 324 322 324 323 322 321 321 320 319 318 312 308 314 326 327 319 321 337 335 333 334 334 332 335 336 339 343 344 344 343
313 312 312 312 313 314 318 319 319 318 318 318 318 318 318 321 322 323 323 323 322 320 318 317 314 313 313 314 314 315 316 317 328 323 335 334 334 333 335 338 339 345 346 346 346
313 310 310 311 312 314 316 318 314 315 316 318 318 318 318 318 319 323 323 321 321 319 317 315 316 315 314 313 314 314 314 314 315 317 333 332 334 333 335 338 339 343 346 347 347
309 308 309 310 312 315 315 315 314 317 316 318 319 318 318 318 319 323 323 321 319 318 317 316 318 317 317 316 316 315 317 317 317 325 327 333 335 337 336 337 340 341 344 346 346
306 307 308 310 311 311 314 313 315 319 313 318 321 321 318 321 321 324 324 322 319 318 315 317 317 319 319 318 316 319 315 318 319 321 321 331 326 328 336 337 339 342 343 344 346
306 307 308 309 309 310 310 313 316 319 312 324 322 321 319 320 321 321 323 322 318 318 317 319 319 318 319 319 316 319 316 317 320 318 319 326 321 321 332 338 338 339 342 343 344
307 308 309 309 310 310 310 312 319 314 315 323 320 319 320 320 321 321 321 321 320 319 318 317 319 319 319 319 318 318 317 315 313 314 318 318 324 317 321 337 338 338 340 342 343
309 309 310 310 310 310 310 314 312 315 315 324 321 321 318 320 320 320 319 318 317 318 318 318 319 319 320 321 318 316 316 317 319 318 320 316 317 317 317 318 329 335 338 340 341
311 311 311 311 311 311 309 312 315 313 320 321 319 319 318 318 319 319 318 317 316 316 316 317 318 320 320 320 319 317 316 317 319 317 316 317 320 320 319 324 328 331 328 330 340
311 312 313 312 313 310 314 311 310 311 318 317 316 319 319 319 320 319 318 317 317 315 318 316 318 318 321 320 320 318 318 315 315 315 318 316 319 324 325 325 336 335 327 328 339
308 311 311 312 312 308 311 308 311 315 316 316 316 319 320 319 320 320 319 319 318 315 317 318 319 319 321 320 319 319 316 320 315 321 322 319 321 325 325 325 332 336 336 337 339
306 309 312 316 309 317 310 309 314 316 317 317 317 318 318 319 319 319 319 323 321 320 315 315 317 319 321 321 319 319 318 315 315 316 319 320 320 317 321 323 329 333 336 337 338
304 304 312 311 312 310 311 313 317 318 318 318 317 316 317 318 319 319 318 321 322 322 320 317 314 317 318 319 319 319 317 315 318 319 316 317 318 317 320 321 324 332 335 336 336
303 304 308 310 310 309 313 316 318 319 318 318 318 317 317 319 319 317 318 320 322 321 321 318 317 318 319 318 320 322 319 316 314 314 318 320 320 318 320 321 323 326 332 335 336
303 303 309 313 311 313 315 315 317 319 318 318 317 317 318 318 315 318 318 320 323 323 323 321 315 317 319 318 319 322 321 318 318 318 319 318 319 320 321 322 323 326 327 328 334
303 302 308 308 310 309 311 314 317 318 317 317 318 318 319 319 317 315 316 319 321 324 319 317 320 318 319 318 320 322 323 320 321 320 322 322 319 320 320 319 321 323 324 324 326
302 308 310 310 310 309 312 314 317 317 317 318 318 317 315 316 317 318 319 318 318 321 321 317 320 319 323 322 322 323 322 321 321 321 320 320 320 317 320 322 322 323 323 323 324
304 308 308 307 309 311 310 313 315 313 315 315 314 314 314 314 317 319 318 321 319 320 318 319 319 320 322 322 323 322 322 322 322 319 320 321 319 318 319 318 320 322 322 323 324

GFSSW_850_thetae_345.txt.gz
Theta_e
311 311 312 312 312 313 315 316 318 317 314 312 312 312 312 312 312 313 314 315 318 318 317 315 316 318 319 319 318 318 323 326 331 339 340 336 334 332 334 329 332 330 327 320 317
312 312 312 312 312 312 313 316 318 320 320 319 317 315 313 313 313 314 314 315 317 318 315 316 317 319 319 318 318 320 323 324 323 337 339 336 332 336 332 332 334 334 326 318 318
312 312 312 312 312 313 313 314 316 319 319 319 318 318 318 321 324 318 315 315 319 317 316 317 318 319 320 317 317 318 323 326 330 336 337 336 336 336 333 335 335 335 330 320 318
312 312 312 312 313 313 313 313 315 317 319 319 318 319 321 323 325 325 318 319 317 316 316 318 319 319 320 321 318 321 328 335 336 336 336 337 337 337 335 333 334 334 332 325 321
312 312 312 313 313 313 315 318 318 318 317 319 319 319 321 323 326 325 327 322 318 316 316 317 319 318 322 320 319 320 333 336 335 336 336 337 338 337 335 335 333 332 334 333 329
312 312 312 313 313 313 317 320 319 319 321 318 319 319 320 324 325 321 320 323 320 317 317 317 319 319 319 319 321 332 338 337 336 336 335 337 336 335 335 335 333 332 335 335 335
312 312 312 313 313 314 317 320 320 320 320 318 318 318 320 325 327 323 316 320 319 316 317 319 319 318 318 331 336 337 339 338 338 337 336 335 337 337 336 335 335 334 335 334 335
312 312 312 312 313 314 316 318 320 319 320 321 317 317 320 324 327 327 319 315 315 316 318 319 319 318 327 333 328 338 338 341 338 337 335 336 341 334 336 336 335 335 335 335 335
312 312 312 312 313 314 315 318 319 319 322 319 320 319 319 324 325 324 322 318 318 319 319 319 318 316 326 334 337 329 338 340 339 338 337 338 341 336 337 337 336 337 337 337 338
312 312 312 312 312 313 315 318 319 318 320 318 319 319 318 323 322 323 323 322 321 320 318 318 317 319 317 332 332 333 337 337 339 340 338 339 341 337 336 337 338 340 340 340 340
311 312 311 311 312 313 316 319 318 317 317 318 318 317 318 319 321 322 322 322 322 320 322 317 320 321 319 318 324 323 328 338 333 337 340 341 340 340 337 337 338 340 342 343 344
309 310 310 310 311 313 315 317 311 312 314 318 317 317 317 318 318 321 322 322 321 322 319 321 320 319 316 316 318 319 322 330 322 321 340 340 342 339 336 338 337 339 342 344 346
307 308 309 310 311 311 313 313 311 315 317 317 318 318 317 317 319 321 322 321 321 321 321 321 320 318 319 318 319 319 320 321 322 329 333 332 331 333 335 337 339 339 341 344 346
307 308 309 310 310 310 313 310 311 317 319 318 322 320 317 318 320 322 323 322 320 322 320 321 320 320 320 321 321 322 320 321 326 329 327 330 326 336 337 338 338 340 341 343 346
309 309 310 310 310 310 310 310 313 317 317 322 322 320 319 321 321 321 322 323 322 321 321 322 320 321 321 322 321 323 320 321 326 327 328 334 332 330 335 339 339 339 341 342 344
310 310 311 310 311 310 310 310 318 319 317 324 320 320 320 320 320 319 320 320 320 321 320 321 318 320 322 321 320 319 322 322 321 324 325 327 333 326 330 337 337 338 340 340 343
312 312 312 311 311 311 310 313 319 318 317 324 322 320 320 320 320 321 322 322 322 322 322 321 321 321 321 322 320 321 326 325 325 325 325 322 329 328 330 326 331 338 340 340 341
315 314 313 312 312 311 310 318 318 315 317 321 319 319 322 320 320 321 321 322 319 320 321 322 321 321 322 323 325 324 327 325 325 325 324 321 325 325 326 323 328 331 334 332 333
315 315 313 312 313 312 312 316 316 315 318 318 318 322 321 321 321 321 321 321 321 320 324 322 321 320 321 322 323 322 324 322 325 321 323 324 325 326 328 330 330 337 337 334 330
312 314 311 314 313 308 315 312 314 312 318 317 317 320 322 321 322 322 322 321 321 319 321 324 323 321 322 322 320 323 321 326 325 327 326 326 327 327 332 332 332 336 337 337 336
308 310 312 313 310 315 313 314 313 314 317 318 318 320 320 321 320 321 322 323 321 320 318 321 325 323 322 324 325 323 323 323 326 326 327 328 327 330 332 334 333 333 336 337 338
306 310 311 311 314 313 317 315 315 318 317 318 318 319 318 319 321 321 321 324 322 321 323 321 325 325 323 321 322 323 326 328 327 329 325 327 327 325 329 330 331 332 334 333 333
303 304 306 311 314 314 315 318 317 319 319 319 320 319 319 320 321 321 322 321 320 324 326 323 326 327 327 324 323 325 324 325 326 327 329 327 327 326 325 325 326 329 330 332 334
304 308 308 311 310 314 316 317 316 318 319 319 320 319 320 320 320 322 320 321 321 323 322 323 326 330 328 327 325 326 325 323 327 330 328 327 327 328 328 329 329 328 328 328 331
303 305 308 311 313 312 312 315 318 319 318 318 319 319 321 322 321 321 320 321 321 324 323 328 330 325 325 324 322 325 324 325 326 328 329 327 327 328 330 328 328 327 325 324 324
303 308 309 311 310 312 312 315 318 317 317 318 320 320 319 320 320 321 321 322 323 324 326 323 328 326 326 325 325 326 327 326 326 326 326 327 328 327 326 325 324 325 326 325 325
304 306 305 306 309 310 312 315 315 314 316 315 315 316 317 317 316 317 318 319 321 324 326 328 328 329 327 326 327 328 327 327 327 327 327 328 328 327 326 326 326 326 326 325 324